Dewpoint
22 22 22 24 26 28 29 29 27 21 20 21 22 24 25 26 28 29 29 31 32 32 32 32 33 34 34 34 35 36 36 37 39 40 42 44 46 50
23 23 23 25 27 28 29 29 29 27 21 23 23 24 25 26 28 29 29 33 32 32 33 33 33 33 33 33 34 36 36 36 38 39 40 42 45 48
23 23 24 26 27 28 29 29 29 29 25 24 25 26 25 26 27 27 29 29 29 32 32 32 32 32 32 33 36 37 37 36 37 38 39 41 43 46
23 24 25 27 28 29 29 29 29 29 27 24 23 23 25 25 26 26 28 28 29 31 32 32 32 31 32 34 37 38 39 38 37 38 39 39 41 43
25 25 25 26 26 27 28 29 30 30 29 26 24 27 25 23 24 26 27 28 29 32 32 32 32 32 32 34 37 38 38 39 39 40 40 40 41 41
24 25 26 26 26 26 29 27 27 27 27 26 25 26 26 26 22 23 25 22 26 29 31 32 32 33 33 34 38 38 39 39 39 40 40 39 39 40
24 24 27 29 31 30 30 28 26 26 25 24 23 24 24 24 23 20 26 28 25 25 25 28 28 30 31 33 34 36 38 39 39 40 40 39 39 40
24 25 26 28 28 30 31 32 32 28 25 25 23 22 21 24 21 18 22 24 24 24 25 28 30 29 30 31 35 36 38 38 39 40 40 39 39 40
26 26 25 25 29 29 30 32 32 33 31 29 25 24 23 25 24 23 26 26 25 23 32 28 25 29 30 33 35 36 38 39 39 39 39 39 39 39
23 24 27 27 27 31 30 30 31 31 30 30 30 27 26 25 26 26 25 25 23 23 26 26 21 23 29 31 34 34 36 38 39 39 39 39 39 39
21 23 27 27 30 32 29 28 30 31 34 34 32 30 29 29 29 30 27 26 24 21 24 28 26 31 27 30 34 34 35 36 39 39 39 39 39 39
21 21 25 27 29 30 29 28 27 30 32 32 32 33 32 32 34 32 27 25 25 21 25 28 30 32 30 31 33 35 36 36 38 39 39 39 40 42
20 22 23 28 28 29 29 28 29 30 32 32 30 30 31 32 32 32 30 28 25 24 29 32 30 31 32 32 34 36 37 37 38 38 39 39 40 43
22 23 25 27 27 27 27 29 29 28 29 31 30 29 29 29 30 29 28 28 28 27 30 33 32 31 32 32 33 37 37 38 39 39 41 40 39 40
23 24 24 24 24 24 26 27 27 26 26 27 29 30 30 29 31 32 32 31 29 29 29 30 33 32 32 30 32 34 36 38 40 41 43 45 45 47
21 22 21 22 20 22 23 24 26 26 27 27 28 30 32 31 31 31 29 29 30 29 31 33 34 33 31 32 33 33 39 38 41 44 46 47 48 51
18 19 18 18 18 19 20 22 24 25 26 27 29 29 31 32 32 32 31 31 30 29 30 32 33 33 33 34 32 34 39 42 44 47 48 47 51 55
16 15 16 16 17 18 18 20 22 23 26 27 29 29 29 31 31 31 32 31 30 30 32 32 32 31 32 33 35 37 41 44 47 49 50 50 50 53
14 14 14 16 16 17 18 20 20 23 27 28 28 29 30 30 30 30 30 31 30 31 31 32 32 33 32 35 33 34 37 41 48 48 51 51 50 51
14 13 13 14 16 17 18 19 21 23 25 27 28 29 30 30 30 30 30 29 30 30 30 32 32 33 36 36 33 33 34 47 48 38 38 38 37 37
15 14 14 14 15 16 18 19 21 22 25 26 28 28 29 30 30 30 30 30 31 31 30 30 31 32 34 33 34 33 34 36 41 44 45 47 46 38
16 15 14 14 15 15 16 18 20 21 23 24 27 28 29 30 30 30 30 30 31 32 31 32 33 33 33 34 34 34 34 36 36 34 32 34 49 43
18 17 16 16 15 14 15 16 18 19 22 23 25 28 29 29 30 31 31 31 32 32 33 32 34 34 33 34 34 34 34 33 33 37 33 32 35 38
Lifted_Index
13 13 12 12 12 12 12 12 12 11 11 11 12 13 13 13 13 13 13 13 13 13 13 14 14 16 17 18 18 18 17 17 16 14 12 10 8 7
12 12 11 11 11 11 11 11 11 11 11 11 12 13 13 13 13 13 13 13 13 13 13 14 14 15 17 18 18 18 18 17 17 15 12 10 9 7
11 11 11 11 10 10 10 10 10 10 10 10 11 12 13 13 13 14 14 14 14 14 14 14 14 15 17 18 18 18 18 18 18 16 13 11 9 7
10 10 10 10 10 9 9 9 9 9 9 9 10 11 12 13 13 14 14 14 14 15 15 15 15 15 16 17 17 17 17 18 18 17 14 12 9 8
10 10 9 9 8 8 8 8 8 8 8 8 8 9 10 11 12 13 13 14 14 14 15 15 15 15 15 16 16 17 17 18 18 17 14 12 9 8
10 9 9 8 7 7 7 7 7 7 7 7 7 7 8 9 11 12 12 13 13 14 14 15 15 15 15 15 15 16 17 18 18 17 15 12 10 8
10 9 9 8 7 6 6 6 6 6 6 5 5 5 6 7 9 11 12 12 13 13 14 15 15 15 15 15 15 16 17 18 18 17 15 12 10 8
10 10 9 8 7 6 6 5 5 5 5 4 4 4 5 6 8 10 11 11 12 13 14 14 14 15 15 15 15 16 17 18 18 17 15 13 11 9
10 10 9 8 7 6 5 5 4 4 4 4 4 4 4 6 7 9 10 11 12 13 13 14 14 14 14 15 15 16 17 17 17 17 16 13 11 9
11 10 10 9 8 7 6 5 4 4 4 4 4 4 5 6 7 8 9 10 11 12 13 13 13 14 14 14 14 15 17 17 17 17 16 14 11 9
11 11 10 10 9 8 7 6 5 5 4 4 4 5 5 6 7 8 9 10 10 11 12 13 13 13 13 13 14 15 16 17 17 18 16 14 11 8
11 11 11 10 10 9 8 7 6 6 6 6 5 6 6 7 7 8 9 9 10 11 11 12 12 12 12 12 13 14 16 17 18 18 16 14 10 7
12 12 11 11 10 10 9 8 8 7 7 7 7 7 7 7 8 9 9 10 10 10 11 11 11 12 11 11 12 13 15 17 17 17 16 13 10 7
12 12 12 11 11 10 9 9 8 8 8 8 8 8 8 8 8 9 10 10 10 10 10 11 11 11 11 11 11 13 15 16 17 16 14 12 9 6
12 12 12 11 11 10 10 9 9 9 9 8 8 8 9 9 9 9 9 10 10 10 10 10 10 10 10 10 11 12 14 15 15 14 13 10 7 5
12 12 11 11 10 10 10 10 10 10 9 9 9 9 9 8 8 8 8 9 9 9 9 9 10 10 9 10 11 12 13 13 13 12 10 8 5 3
11 11 11 11 10 10 10 10 10 10 10 9 9 9 8 8 8 7 7 7 7 7 8 9 9 9 9 10 11 12 12 11 10 9 7 5 2 1
12 11 11 11 11 10 11 11 11 11 11 10 9 9 8 8 8 7 7 6 6 6 7 8 8 8 9 10 11 11 10 8 8 7 5 3 1 1
14 13 13 12 11 11 11 11 11 11 11 11 10 10 9 9 8 8 7 6 6 6 7 8 8 8 9 10 10 9 8 7 6 5 3 2 1 1
15 15 15 14 13 12 11 11 12 12 11 11 10 10 10 10 9 9 8 6 6 6 7 8 8 9 9 9 8 7 6 6 5 4 3 2 1 1
16 16 16 15 14 13 12 12 12 11 11 11 11 10 10 10 10 9 8 6 5 5 5 6 8 8 8 7 6 6 6 5 4 3 2 2 2 1
16 15 16 16 16 15 13 12 12 11 11 11 11 10 10 10 10 9 7 5 4 4 4 5 6 7 6 6 5 5 5 5 4 3 2 2 2 2
16 16 16 16 17 16 15 13 12 12 11 11 11 10 10 10 10 9 7 5 3 3 4 5 6 6 6 5 5 5 5 4 4 2 1 1 2 2